Regional Weather Roundup
Issued by NWS Kansas City/Pleasant Hill, MO

Home | Current Version | Previous Version | Graphics & Text | Print | Product List | Glossary Off
Versions: 1 2 3 4 5 6 7 8 9 10 11 12 13 14 15 16 17 18 19 20 21 22 23 24 25 26 27 28 29 30 31 32 33 34 35 36 37 38 39 40 41 42 43 44 45 46 47 48 49 50

000
ASUS43 KEAX 210811
RWREAX

WEATHER ROUNDUP FOR EASTERN KANSAS AND NORTHWEST MISSOURI
NATIONAL WEATHER SERVICE KANSAS CITY/PLEASANT HILL MO
300 AM CDT SUN SEP 21 2014

KSZ040-057-103>105-MOZ028-029-037-043-210900-
...KANSAS CITY METROPOLITAN AREA...

CITY           SKY/WX    TMP DP  RH WIND       PRES   REMARKS
K.C. INTL      CLEAR     64  56  75 N12       30.06R
K.C. DOWNTOWN  CLEAR     69  58  67 VRB7      30.05R
LEES SUMMIT    CLEAR     69  62  78 N15       30.06R
OLATHE - IXD   CLEAR     67  63  87 N12       30.06R
OLATHE - OJC   CLEAR     69  64  84 N14       30.05R
LAWRENCE       CLEAR     65  58  78 N8        30.06R

$$

MOZ001>008-011>017-020>025-030>033-038>040-044>046-053-054-210900-
...NORTHERN AND CENTRAL MISSOURI...

CITY           SKY/WX    TMP DP  RH WIND       PRES   REMARKS
ST. JOSEPH     CLEAR     60  53  77 N5        30.07R
MOSBY          SUNNY     64  50  59 N9        30.05R
WHITEMAN AFB   CLEAR     69  67  94 NW9       30.01R
CLINTON        CLEAR     70  70 100 W6        30.00S FOG
SEDALIA        CLEAR     71  68  90 W6        29.98S
WARSAW         NOT AVBL
MARSHALL       CLEAR     72  66  83 N8G18     30.02R
CHILLICOTHE      N/A     65  49  56 VRB7G17   30.05R
MOBERLY        CLEAR     66  52  59 N10G22    30.00R
KIRKSVILLE     CLEAR     61  51  70 N8        30.01R

$$

MOZ041-047>049-056>058-063>065-088>090-097-210900-
...EASTERN AND SOUTHERN MISSOURI...

CITY           SKY/WX    TMP DP  RH WIND       PRES   REMARKS
ST. LOUIS INTL PTCLDY    74  68  81 W9        29.90F
SPIRIT OF STL  PTCLDY    72  69  90 W8        29.90S
COLUMBIA       CLEAR     70  69  97 W7        29.95F
JEFFERSON CITY PTCLDY    71  68  90 W5        29.95S
MEXICO         CLEAR    N/A N/A N/A NW9G24    29.96R
HANNIBAL       CLEAR     66  57  72 NW13      29.97R
ROLLA          CLOUDY    71  67  87 SW6       29.97S
LEBANON        RAIN      73  66  78 W9        30.02R
OSAGE BEACH    CLOUDY    73  68  83 W9        29.99S
SPRINGFIELD    MOCLDY    72  67  84 SW3       30.03S
BRANSON        PTCLDY    68  66  94 SW5       30.05S
JOPLIN         CLOUDY    73  67  81 SW7       30.03S
WEST PLAINS    CLEAR     69  66  90 W6        30.03F

$$

IAZ060-094-KSZ022-034>040-054-083-096-NEZ052-066-093-210900-
...KANSAS...SOUTHEAST NEBRASKA AND IOWA...

CITY           SKY/WX    TMP DP  RH WIND       PRES   REMARKS
TOPEKA         CLEAR     67  60  78 N10       30.07R
MANHATTAN      CLEAR     67  55  65 N8        30.09R
EMPORIA        PTCLDY    65  64  97 NW7       30.08R
CHANUTE        CLOUDY    75  70  84 W3        30.04S
WICHITA        MOCLDY    75  68  78 NE5       30.06S
OMAHA          CLEAR     59  55  87 CALM      30.08S
LINCOLN        CLEAR     56  50  80 NW3       30.12R
FALLS CITY     CLEAR     62  56  80 NW3       30.08R
LAMONI         CLEAR     56  50  80 NW6       30.04S
DES MOINES     CLEAR     57  51  80 W6        30.00S

$$



USA.gov is the U.S. government's official web portal to all federal, state and local government web resources and services.